View from above orbital plane
|
View from above satellite
|
Ground track
|
The orbit data is extracted from the following two-line orbital elements,
1 00047U 60007C 21112.87430292 .00000026 00000-0 31068-4 0 9996
2 00047 66.6675 47.6225 0220093 76.3864 286.1646 14.42145284179291
Epoch (UTC): | 22 April 2021 20:58:59 |
Eccentricity: | 0.0220093 |
inclination: | 66.6675° |
perigee height: | 594 km |
apogee height: | 908 km |
right ascension of ascending node: | 47.6225° |
argument of perigee: | 76.3864° |
revolutions per day: | 14.42145284 |
mean anomaly at epoch: | 286.1646° |
orbit number at epoch: | 17929 |
The dashed part of the orbit path shows where the satellite is in the earth's shadow,
|
|